Faribault, MN

1:52 AM CDT on June 27, 2017 (GMT -0500)
Faribault Municipal

Weather History for KFBL - July, 2013

Change the Weather History Date:

Wednesday, July 10, 2013

  Actual Average Record
Temperature  
Mean Temperature 69 °F -  
Max Temperature 78 °F 84 °F 97 °F (1989)
Min Temperature 60 °F 60 °F 46 °F (1996)
Cooling Degree Days 4    
Growing Degree Days 19 (Base 50)    
Moisture  
Dew Point 59 °F    
Average Humidity 70    
Maximum Humidity 94    
Minimum Humidity 42    
Precipitation  
Precipitation 0.00 in - - ()
Sea Level Pressure  
Sea Level Pressure 30.04 in    
Wind  
Wind Speed 8 mph (NW)    
Max Wind Speed 15 mph    
Max Gust Speed 21 mph    
Visibility 10 miles    
Events      
Averages and records for this station are not official NWS values.
T = Trace of Precipitation, MM = Missing Value Source: NWS Daily Summary

Daily Weather History Graph

Daily Weather History Graph

Search for Another Location

Airport or City:

Trip Planner

Search our weather history database for the weather conditions in past years. The results will help you decide how hot, cold, wet, or windy it might be!

Date:

Astronomy

Jul. 10, 2013 Rise Set
Actual Time 5:39 AM CDT 8:57 PM CDT
Civil Twilight 5:03 AM CDT 9:33 PM CDT
Nautical Twilight 4:17 AM CDT 10:19 PM CDT
Astronomical Twilight 3:19 AM CDT 11:17 PM CDT
Moon 8:07 AM CDT (7/10) 9:59 PM CDT (7/10)
Length of Visible Light 16h 29m
Length of Day
15h 18m
Waxing Crescent, 5% of the Moon is Illuminated
Jul 10
Waxing Crescent
Jul 15
First Quarter
Jul 22
Full
Jul 29
Last Quarter
Aug 6
New

Hourly Weather History & Observations

Time (CDT) Temp. Dew Point Humidity Pressure Visibility Wind Dir Wind Speed Gust Speed Precip Events Conditions
12:14 AM 71.6 °F 68.0 °F 88% 29.94 in 10.0 mi WNW 8.1 mph - N/A   Clear
12:33 AM 71.6 °F 68.0 °F 88% 29.95 in 10.0 mi WNW 9.2 mph - N/A   Clear
12:54 AM 71.6 °F 64.4 °F 78% 29.96 in 10.0 mi WNW 10.4 mph 18.4 mph N/A   Clear
1:14 AM 69.8 °F 64.4 °F 83% 29.96 in 10.0 mi WNW 11.5 mph 16.1 mph N/A   Clear
1:34 AM 69.8 °F 64.4 °F 83% 29.97 in 10.0 mi WNW 11.5 mph - N/A   Clear
1:54 AM 68.0 °F 64.4 °F 88% 29.96 in 10.0 mi WNW 9.2 mph - N/A   Clear
2:14 AM 66.2 °F 64.4 °F 94% 29.97 in 10.0 mi WNW 8.1 mph - N/A   Clear
2:34 AM 66.2 °F 64.4 °F 94% 29.97 in 10.0 mi WNW 9.2 mph - N/A   Clear
2:54 AM 66.2 °F 64.4 °F 94% 29.98 in 10.0 mi WNW 9.2 mph - N/A   Clear
3:14 AM 66.2 °F 62.6 °F 88% 29.98 in 10.0 mi WNW 8.1 mph - N/A   Clear
3:34 AM 64.4 °F 62.6 °F 94% 29.99 in 10.0 mi WNW 8.1 mph - N/A   Clear
3:54 AM 64.4 °F 62.6 °F 94% 29.99 in 10.0 mi WNW 8.1 mph - N/A   Clear
4:14 AM 64.4 °F 62.6 °F 94% 30.00 in 10.0 mi NW 9.2 mph - N/A   Clear
4:34 AM 64.4 °F 57.2 °F 77% 30.01 in 10.0 mi NW 12.7 mph 18.4 mph N/A   Clear
4:54 AM 62.6 °F 57.2 °F 82% 30.03 in 10.0 mi NW 6.9 mph - N/A   Clear
5:14 AM 62.6 °F 59.0 °F 88% 30.03 in 10.0 mi NW 5.8 mph - N/A   Clear
5:33 AM 62.6 °F 59.0 °F 88% 30.04 in 10.0 mi WNW 5.8 mph - N/A   Clear
5:54 AM 60.8 °F 59.0 °F 94% 30.04 in 10.0 mi WNW 5.8 mph - N/A   Clear
6:14 AM 60.8 °F 57.2 °F 88% 30.05 in 10.0 mi WNW 4.6 mph - N/A   Clear
6:34 AM 60.8 °F 57.2 °F 88% 30.05 in 10.0 mi NW 4.6 mph - N/A   Clear
6:54 AM 62.6 °F 57.2 °F 82% 30.05 in 10.0 mi WNW 5.8 mph - N/A   Clear
7:14 AM 62.6 °F 57.2 °F 82% 30.06 in 10.0 mi WNW 5.8 mph - N/A   Clear
7:34 AM 62.6 °F 57.2 °F 82% 30.06 in 10.0 mi NW 6.9 mph - N/A   Clear
7:54 AM 64.4 °F 57.2 °F 77% 30.06 in 10.0 mi NNW 9.2 mph - N/A   Clear
8:14 AM 64.4 °F 57.2 °F 77% 30.06 in 10.0 mi NNW 11.5 mph - N/A   Clear
8:34 AM 64.4 °F 57.2 °F 77% 30.06 in 10.0 mi NW 11.5 mph - N/A   Clear
8:53 AM 66.2 °F 57.2 °F 73% 30.07 in 7.0 mi NNW 10.4 mph - N/A   Clear
9:14 AM 66.2 °F 59.0 °F 78% 30.07 in 7.0 mi NW 9.2 mph - N/A   Clear
9:34 AM 68.0 °F 57.2 °F 68% 30.07 in 7.0 mi NNW 10.4 mph 17.3 mph N/A   Clear
9:54 AM 69.8 °F 59.0 °F 68% 30.07 in 10.0 mi North 10.4 mph - N/A   Clear
10:14 AM 69.8 °F 59.0 °F 68% 30.07 in 7.0 mi NW 9.2 mph - N/A   Clear
10:34 AM 69.8 °F 57.2 °F 64% 30.06 in 10.0 mi NW 10.4 mph - N/A   Clear
10:54 AM 71.6 °F 57.2 °F 60% 30.07 in 10.0 mi NNW 9.2 mph - N/A   Clear
11:14 AM 73.4 °F 57.2 °F 57% 30.07 in 10.0 mi NW 10.4 mph - N/A   Clear
11:34 AM 73.4 °F 57.2 °F 57% 30.06 in 10.0 mi NNW 12.7 mph - N/A   Clear
11:54 AM 73.4 °F 59.0 °F 61% 30.06 in 10.0 mi NNW 9.2 mph 18.4 mph N/A   Clear
12:14 PM 75.2 °F 57.2 °F 53% 30.06 in 10.0 mi NNW 13.8 mph 18.4 mph N/A   Clear
12:34 PM 75.2 °F 57.2 °F 53% 30.06 in 10.0 mi NNW 12.7 mph 17.3 mph N/A   Clear
12:54 PM 75.2 °F 55.4 °F 50% 30.06 in 10.0 mi NNW 15.0 mph 20.7 mph N/A   Clear
1:14 PM 75.2 °F 55.4 °F 50% 30.06 in 10.0 mi NNW 12.7 mph 16.1 mph N/A   Clear
1:34 PM 77.0 °F 55.4 °F 47% 30.06 in 10.0 mi NW 12.7 mph 18.4 mph N/A   Clear
1:54 PM 77.0 °F 57.2 °F 50% 30.06 in 10.0 mi NNW 10.4 mph - N/A   Clear
2:14 PM 77.0 °F 55.4 °F 47% 30.05 in 10.0 mi NNW 9.2 mph 16.1 mph N/A   Clear
2:34 PM 78.8 °F 55.4 °F 44% 30.05 in 10.0 mi NNW 12.7 mph 19.6 mph N/A   Clear
2:54 PM 78.8 °F 55.4 °F 44% 30.06 in 10.0 mi NNW 11.5 mph 17.3 mph N/A   Clear
3:14 PM 78.8 °F 53.6 °F 42% 30.05 in 10.0 mi WNW 12.7 mph - N/A   Clear
3:34 PM 78.8 °F 55.4 °F 44% 30.05 in 10.0 mi NNW 8.1 mph - N/A   Clear
3:54 PM 78.8 °F 55.4 °F 44% 30.05 in 10.0 mi North 9.2 mph - N/A   Clear
4:14 PM 78.8 °F 55.4 °F 44% 30.05 in 10.0 mi NNW 9.2 mph - N/A   Clear
4:34 PM 78.8 °F 55.4 °F 44% 30.05 in 10.0 mi NNW 9.2 mph - N/A   Clear
4:53 PM 78.8 °F 55.4 °F 44% 30.04 in 10.0 mi NW 4.6 mph - N/A   Scattered Clouds
5:14 PM 78.8 °F 55.4 °F 44% 30.04 in 10.0 mi WNW 9.2 mph - N/A   Scattered Clouds
5:34 PM 78.8 °F 55.4 °F 44% 30.04 in 10.0 mi NNW 6.9 mph - N/A   Scattered Clouds
5:54 PM 78.8 °F 55.4 °F 44% 30.04 in 10.0 mi WNW 8.1 mph - N/A   Scattered Clouds
6:14 PM 78.8 °F 55.4 °F 44% 30.03 in 10.0 mi NNW 5.8 mph - N/A   Clear
6:34 PM 78.8 °F 55.4 °F 44% 30.04 in 10.0 mi NW 5.8 mph - N/A   Clear
6:54 PM 77.0 °F 55.4 °F 47% 30.03 in 10.0 mi WNW 6.9 mph - N/A   Clear
7:13 PM 75.2 °F 55.4 °F 50% 30.03 in 10.0 mi NW 4.6 mph - N/A   Clear
7:34 PM 75.2 °F 57.2 °F 53% 30.03 in 10.0 mi NW 3.5 mph - N/A   Clear
7:54 PM 75.2 °F 59.0 °F 57% 30.03 in 10.0 mi Calm Calm - N/A   Clear
8:14 PM 73.4 °F 60.8 °F 65% 30.03 in 10.0 mi Calm Calm - N/A   Clear
8:34 PM 71.6 °F 62.6 °F 73% 30.03 in 10.0 mi Calm Calm - N/A   Clear
8:54 PM 68.0 °F 62.6 °F 83% 30.03 in 10.0 mi Calm Calm - N/A   Clear
9:14 PM 66.2 °F 60.8 °F 83% 30.03 in 10.0 mi Calm Calm - N/A   Clear
9:34 PM 66.2 °F 60.8 °F 83% 30.04 in 10.0 mi Calm Calm - N/A   Clear
9:54 PM 64.4 °F 60.8 °F 88% 30.05 in 10.0 mi Calm Calm - N/A   Clear
10:14 PM 64.4 °F 60.8 °F 88% 30.05 in 10.0 mi Calm Calm - N/A   Clear
10:34 PM 64.4 °F 60.8 °F 88% 30.06 in 10.0 mi Calm Calm - N/A   Clear
10:54 PM 62.6 °F 60.8 °F 94% 30.06 in 10.0 mi Calm Calm - N/A   Clear
11:14 PM 62.6 °F 60.8 °F 94% 30.06 in 10.0 mi Calm Calm - N/A   Clear
11:34 PM 62.6 °F 60.8 °F 94% 30.07 in 10.0 mi Calm Calm - N/A   Clear
11:53 PM 62.6 °F 60.8 °F 94% 30.07 in 10.0 mi Calm Calm - N/A   Clear